Regional Weather Roundup
Issued by NWS

Home | Current Version | Previous Version | Graphics & Text | Print | Product List | Glossary On
Versions: 1 2 3 4 5 6 7 8 9 10 11 12 13 14 15 16 17 18 19 20 21 22 23 24 25 26 27 28 29 30 31 32 33 34 35 36 37 38 39 40 41 42 43 44 45 46 47 48 49 50
000
ASUS43 KIND 270159
RWRIN

WEATHER ROUNDUP FOR INDIANA
NATIONAL WEATHER SERVICE INDIANAPOLIS IN
1000 PM EDT THU APR 26 2018

NOTE: "FAIR" INDICATES FEW OR NO CLOUDS BELOW 12,000 FEET WITH NO
SIGNIFICANT WEATHER AND/OR OBSTRUCTIONS TO VISIBILITY.

* - STATION DOES NOT REPORT WEATHER SUCH AS PRECIPITATION OR FOG.

+ - STATION NOT QUALITY CONTROLLED BY THE NATIONAL WEATHER SERVICE.
    USE DATA WITH CAUTION...ESPECIALLY DEWPOINT AND RELATIVE
    HUMIDITY OBSERVATIONS.

INZ001>003-010>013-019-020-270300-
NORTHWEST INDIANA

CITY           SKY/WX    TMP DP  RH WIND       PRES   REMARKS
GARY /AIRPORT/ MOCLDY    57  23  26 SE8       29.86S
KNOX *+        FAIR      45  32  61 NE3       29.87S
MONTICELLO +   FAIR      55  29  37 N3        29.87R

$$

LMZ046-743>745-270300-
SOUTHERN LAKE MICHIGAN

STATION/POSITION TIME  TEMP    WIND        PRES    WAVE
                       AIR SEA DIR/SP/G            HT
                 (UTC) (F)     (DEG/KT/KT) (MB)    (FT)
BURNS HARBOR     0140   58     140/  5/  9 1011.5F
MICHIGAN CITY    0130   57     120/  4/  5   N/A

$$

INZ004-005-014>016-021>024-270300-
NORTH CENTRAL INDIANA

CITY           SKY/WX    TMP DP  RH WIND       PRES   REMARKS
GOSHEN         FAIR      52  32  46 N3        29.87R
ROCHESTER +    FAIR      54  34  47 N3        29.87S
SOUTH BEND     FAIR      47  26  44 CALM      29.88S
WARSAW +       FAIR      52  36  54 N5        29.87R

$$

INZ006>009-017-018-025>027-270300-
NORTHEAST INDIANA

CITY           SKY/WX    TMP DP  RH WIND       PRES   REMARKS
ANGOLA *+      CLOUDY    52  36  54 NW5       29.86R
FORT WAYNE     MOCLDY    54  38  54 CALM      29.87R
KENDALLVILLE + FAIR      52  28  39 S3        29.86S

$$

INZ028-029-035-036-043>045-051>053-270300-
WEST CENTRAL INDIANA

CITY           SKY/WX    TMP DP  RH WIND       PRES   REMARKS
GREENCASTLE +  FAIR      54  32  43 CALM      29.87S
LAFAYETTE      FAIR      53  34  48 CALM      29.86R
TERRE HAUTE    FAIR      53  36  52 CALM      29.87S

$$

INZ030>032-037>040-046>048-054>057-064-065-270300-
CENTRAL INDIANA

CITY           SKY/WX    TMP DP  RH WIND       PRES   REMARKS
COLUMBUS       PTCLDY    54  37  54 CALM      29.86S
GREENWOOD *+   FAIR      53  36  51 CALM      29.87R
INDIANAPOLIS   FAIR      55  34  45 NW7       29.86S
-EAGLE CREEK   FAIR      57  36  45 NW5       29.86R
KOKOMO +       FAIR      53  37  54 CALM      29.87S
MT COMFORT *+  FAIR      50  41  71 CALM      29.87S
SHELBYVILLE    FAIR      54  37  52 NE3       29.85S
ZIONSVILLE +   FAIR      51  36  56 CALM      29.88R

$$

INZ033-034-041-042-049-050-058-059-270300-
EAST CENTRAL INDIANA

CITY           SKY/WX    TMP DP  RH WIND       PRES   REMARKS
MUNCIE         FAIR      55  38  52 CALM      29.86R
RICHMOND +     FAIR      55  36  47 W3        29.86S

$$

INZ060-061-067>069-081>083-085>088-270300-
SOUTHWEST INDIANA

CITY           SKY/WX    TMP DP  RH WIND       PRES   REMARKS
EVANSVILLE     FAIR      57  40  52 W6        29.88R

$$

INZ062-063-066-070>080-084-089>092-270300-
SOUTH CENTRAL AND SOUTHEAST INDIANA

CITY           SKY/WX    TMP DP  RH WIND       PRES   REMARKS
BLOOMINGTON    FAIR      50  40  68 CALM      29.86R
FRENCH LICK *+ FAIR      57  18  21 CALM      29.87S
MADISON *+     FAIR      55  30  38 CALM      29.88R
SEYMOUR +      FAIR      54  37  54 CALM      29.86R

$$




USA.gov is the U.S. government's official web portal to all federal, state and local government web resources and services.